GFSNW_700_temp_075.txt.gz
Temp
-8 -8 -8 -9 -9 -9 -10 -10 -9 -8 -8 -8 -8 -8 -8 -8 -6 -5 -5 -4 -4 -4 -2 -2 -2 -2 -1 -1 -0 -0 -0 1 2 2 3 2 3 3 3 3 3 3 3 5
-8 -9 -9 -10 -10 -10 -11 -10 -10 -9 -8 -9 -8 -8 -8 -7 -7 -7 -6 -6 -5 -5 -4 -3 -2 -2 -2 -2 -1 -2 -1 -1 0 1 2 2 2 2 3 3 3 3 3 4
-9 -9 -10 -10 -10 -10 -11 -11 -10 -10 -8 -7 -8 -8 -8 -7 -6 -7 -7 -6 -6 -6 -5 -5 -4 -3 -2 -2 -2 -2 -3 -2 -2 -0 -1 -1 -0 1 1 1 2 3 3 3
-10 -10 -10 -11 -11 -11 -11 -11 -9 -9 -8 -8 -8 -8 -8 -9 -8 -7 -7 -7 -7 -6 -6 -5 -5 -4 -4 -3 -3 -1 -1 -2 -2 -2 -1 -1 -1 -0 1 1 1 1 2 3
-10 -10 -10 -10 -11 -11 -12 -11 -10 -10 -9 -8 -8 -8 -8 -8 -7 -8 -7 -7 -6 -7 -6 -6 -5 -5 -5 -5 -4 -3 -3 -2 -2 -2 -1 -1 -0 -0 1 2 2 2 2 2
-10 -10 -10 -10 -10 -11 -11 -11 -10 -10 -9 -8 -8 -8 -8 -8 -8 -7 -7 -7 -7 -7 -7 -7 -7 -7 -6 -6 -5 -3 -4 -3 -3 -2 -1 -1 -1 1 1 1 2 2 2 2
-11 -10 -10 -10 -10 -11 -10 -10 -10 -11 -10 -9 -8 -8 -8 -7 -7 -7 -7 -8 -7 -7 -7 -7 -7 -7 -6 -5 -5 -4 -4 -4 -3 -3 -2 -2 0 2 2 2 2 3 2 2
-10 -10 -10 -11 -11 -11 -11 -11 -11 -10 -11 -10 -8 -8 -8 -8 -8 -8 -7 -8 -8 -7 -7 -7 -6 -6 -6 -5 -4 -5 -5 -4 -4 -4 -3 -1 -0 0 1 1 2 2 2 3
-10 -10 -10 -10 -11 -11 -11 -11 -11 -11 -10 -9 -9 -9 -8 -7 -8 -8 -7 -8 -7 -7 -7 -7 -7 -6 -5 -5 -4 -4 -5 -5 -5 -4 -3 -2 0 1 0 1 1 1 1 1
-9 -10 -10 -10 -10 -11 -11 -10 -10 -11 -10 -9 -9 -8 -8 -8 -8 -8 -8 -8 -7 -8 -8 -8 -8 -7 -6 -5 -4 -5 -6 -5 -4 -5 -5 -3 -1 -1 -0 -1 -0 -0 -0 -0
-9 -9 -10 -10 -10 -10 -10 -10 -10 -10 -10 -9 -9 -8 -8 -8 -8 -8 -7 -8 -7 -7 -8 -8 -7 -7 -6 -5 -4 -4 -5 -5 -5 -5 -4 -3 -1 -2 -2 -2 -1 -1 -1 -0
-9 -9 -9 -10 -10 -10 -10 -10 -10 -10 -10 -9 -9 -8 -8 -8 -8 -8 -8 -7 -7 -8 -8 -8 -7 -7 -6 -6 -5 -4 -5 -4 -3 -3 -3 -2 -2 -2 -2 -2 -1 -1 -1 0
-9 -9 -9 -10 -10 -10 -10 -10 -10 -10 -9 -9 -9 -8 -8 -8 -8 -8 -7 -7 -8 -7 -7 -7 -7 -6 -6 -6 -5 -4 -4 -3 -3 -3 -3 -2 -2 -2 -2 -1 -1 -0 -0 -0
-9 -9 -10 -10 -10 -9 -9 -9 -9 -9 -9 -9 -9 -8 -8 -8 -8 -7 -7 -8 -8 -7 -7 -8 -7 -6 -6 -6 -5 -5 -4 -4 -4 -4 -4 -3 -3 -3 -2 -2 -2 -2 -1 -0
-8 -9 -9 -10 -10 -9 -9 -9 -9 -9 -9 -9 -9 -8 -8 -7 -8 -8 -7 -8 -8 -7 -7 -7 -7 -7 -6 -6 -6 -6 -5 -5 -5 -4 -4 -4 -3 -3 -3 -3 -2 -2 -1 -1
-9 -9 -9 -10 -10 -9 -9 -10 -10 -9 -9 -9 -9 -8 -8 -8 -7 -8 -8 -7 -7 -7 -7 -7 -7 -6 -7 -7 -6 -5 -5 -5 -5 -5 -5 -5 -4 -4 -4 -3 -3 -3 -3 -2
-9 -9 -9 -10 -10 -10 -10 -10 -9 -10 -10 -9 -9 -8 -7 -8 -8 -8 -8 -8 -8 -7 -7 -7 -7 -7 -7 -7 -6 -6 -5 -5 -5 -5 -6 -5 -5 -4 -4 -4 -4 -3 -3 -3
-9 -9 -9 -10 -10 -10 -10 -10 -9 -9 -9 -9 -9 -9 -8 -8 -9 -9 -8 -8 -8 -7 -7 -7 -7 -7 -7 -7 -6 -5 -5 -6 -6 -5 -6 -6 -5 -5 -5 -5 -4 -4 -4 -4
-9 -9 -10 -10 -10 -10 -9 -9 -9 -9 -9 -9 -9 -8 -8 -9 -9 -9 -7 -7 -7 -7 -7 -7 -7 -7 -7 -6 -6 -6 -6 -6 -6 -6 -6 -5 -5 -5 -5 -5 -5 -5 -4 -4
-9 -9 -10 -10 -10 -9 -10 -10 -10 -11 -10 -9 -8 -8 -8 -8 -8 -8 -7 -8 -7 -7 -7 -7 -7 -7 -7 -7 -7 -6 -6 -6 -6 -6 -6 -6 -5 -6 -5 -5 -5 -5 -5 -4
-9 -9 -9 -9 -9 -10 -9 -10 -9 -9 -9 -9 -8 -8 -8 -8 -8 -8 -8 -8 -8 -8 -8 -8 -8 -8 -8 -8 -8 -7 -7 -7 -7 -7 -6 -6 -6 -6 -6 -6 -5 -5 -5 -5
-8 -8 -9 -9 -9 -9 -9 -9 -9 -9 -9 -9 -8 -8 -7 -8 -8 -8 -8 -7 -7 -8 -8 -8 -8 -9 -9 -8 -8 -8 -7 -8 -8 -7 -7 -7 -6 -7 -6 -6 -6 -6 -6 -6
-9 -9 -9 -8 -8 -9 -9 -9 -9 -10 -9 -9 -8 -8 -8 -7 -8 -8 -7 -7 -8 -8 -8 -8 -10 -10 -10 -10 -9 -9 -9 -9 -9 -9 -8 -7 -7 -7 -7 -8 -8 -8 -8 -8
-9 -8 -8 -8 -8 -9 -8 -8 -9 -9 -8 -8 -8 -8 -7 -8 -7 -7 -7 -8 -8 -9 -10 -12 -12 -12 -12 -11 -11 -11 -11 -10 -10 -9 -9 -9 -9 -9 -9 -9 -9 -9 -9 -9
-7 -7 -7 -9 -9 -9 -9 -9 -9 -8 -8 -8 -8 -8 -7 -7 -8 -7 -8 -9 -10 -11 -13 -13 -14 -14 -13 -13 -12 -12 -12 -12 -11 -11 -11 -11 -11 -11 -11 -11 -11 -11 -11 -12
-7 -8 -10 -10 -10 -10 -9 -9 -8 -8 -8 -8 -9 -8 -8 -8 -8 -8 -9 -10 -12 -13 -13 -14 -14 -14 -13 -13 -13 -13 -13 -13 -13 -13 -13 -13 -13 -13 -13 -13 -13 -13 -13 -13
-9 -11 -11 -10 -10 -9 -9 -9 -9 -9 -9 -9 -8 -8 -8 -10 -10 -11 -12 -13 -14 -14 -14 -14 -14 -14 -14 -14 -14 -14 -14 -14 -14 -14 -14 -14 -14 -14 -14 -14 -14 -14 -14 -14

GFSNW_700_temp_081.txt.gz
Temp
-12 -13 -12 -12 -12 -11 -11 -10 -10 -9 -8 -8 -9 -8 -8 -6 -5 -5 -5 -5 -4 -3 -3 -2 -1 -3 -3 -4 -2 -1 -0 0 2 3 3 3 3 4 3 3 5 5 6 6
-12 -12 -13 -12 -12 -11 -11 -11 -11 -9 -9 -8 -8 -8 -8 -7 -6 -5 -5 -5 -4 -4 -4 -3 -2 -3 -4 -4 -4 -3 -2 1 2 -0 2 3 3 4 4 5 5 4 3 7
-12 -12 -12 -11 -11 -11 -12 -11 -11 -10 -9 -9 -8 -8 -8 -7 -7 -6 -5 -5 -5 -5 -4 -4 -3 -3 -3 -4 -4 -4 -3 -1 1 3 3 2 3 4 4 4 4 5 5 5
-12 -11 -11 -11 -11 -12 -11 -11 -11 -10 -9 -9 -8 -8 -7 -7 -6 -7 -6 -5 -5 -5 -4 -4 -3 -3 -3 -4 -4 -4 -3 -2 -1 0 0 1 2 2 3 3 4 4 4 5
-11 -11 -11 -11 -12 -12 -11 -11 -11 -11 -10 -9 -9 -9 -7 -8 -6 -6 -6 -6 -5 -5 -5 -5 -4 -3 -3 -4 -4 -4 -3 -2 -1 -0 0 1 2 2 2 2 3 3 3 4
-10 -11 -11 -11 -12 -12 -12 -11 -11 -11 -10 -9 -9 -8 -8 -7 -6 -6 -6 -6 -6 -6 -5 -6 -6 -6 -6 -5 -5 -4 -4 -2 -1 -0 0 0 1 2 2 3 3 3 4 4
-10 -10 -11 -11 -11 -12 -12 -11 -11 -11 -11 -10 -9 -8 -8 -8 -7 -7 -6 -6 -7 -7 -6 -7 -7 -7 -6 -6 -6 -5 -5 -3 -2 -1 -0 0 2 2 2 3 3 3 3 3
-10 -10 -10 -10 -11 -11 -11 -11 -11 -11 -11 -9 -9 -8 -8 -8 -7 -7 -7 -7 -7 -7 -7 -7 -6 -5 -6 -6 -5 -5 -5 -4 -2 -2 -0 1 2 2 2 2 3 2 2 2
-9 -10 -10 -10 -10 -11 -11 -11 -11 -11 -11 -10 -9 -9 -8 -8 -8 -8 -7 -7 -7 -7 -7 -7 -6 -3 -3 -3 -3 -4 -4 -5 -3 -2 -1 0 1 1 1 1 2 1 0 0
-9 -9 -9 -9 -10 -10 -10 -11 -11 -11 -11 -11 -10 -9 -8 -8 -8 -7 -7 -8 -7 -8 -7 -7 -5 -4 -3 -2 -3 -4 -4 -5 -4 -3 -2 -0 -1 -1 -1 0 0 -2 -2 -1
-9 -9 -9 -9 -9 -10 -10 -10 -11 -11 -11 -10 -11 -10 -9 -8 -8 -8 -7 -8 -8 -8 -8 -7 -5 -5 -4 -3 -2 -3 -4 -5 -5 -4 -4 -2 -1 -1 -1 -2 -3 -3 -3 -3
-10 -10 -9 -9 -9 -9 -10 -10 -10 -11 -11 -11 -10 -9 -9 -9 -9 -8 -8 -8 -7 -7 -7 -6 -5 -5 -4 -3 -3 -3 -4 -3 -3 -3 -2 -2 -3 -2 -3 -3 -3 -2 -1 -1
-10 -10 -10 -9 -9 -9 -9 -10 -10 -11 -11 -11 -10 -9 -9 -8 -8 -8 -8 -8 -8 -7 -7 -6 -6 -6 -4 -4 -3 -4 -3 -4 -3 -3 -2 -3 -2 -3 -4 -3 -3 -2 -2 -2
-10 -10 -9 -9 -9 -9 -10 -10 -10 -10 -10 -11 -9 -9 -9 -8 -8 -8 -8 -8 -8 -7 -6 -7 -7 -6 -5 -4 -4 -4 -3 -4 -2 -3 -4 -3 -4 -4 -3 -3 -3 -3 -3 -3
-10 -10 -10 -9 -9 -9 -10 -10 -9 -10 -10 -10 -9 -9 -8 -8 -8 -8 -8 -8 -8 -7 -7 -7 -7 -6 -6 -5 -5 -4 -4 -4 -4 -4 -4 -4 -4 -5 -3 -3 -3 -3 -3 -3
-10 -10 -10 -9 -9 -9 -10 -10 -10 -10 -10 -10 -9 -9 -8 -8 -8 -8 -8 -8 -8 -7 -7 -7 -6 -6 -6 -6 -5 -5 -5 -4 -4 -4 -4 -4 -4 -5 -4 -3 -4 -4 -4 -4
-10 -10 -9 -9 -9 -10 -10 -10 -9 -9 -10 -10 -9 -8 -7 -8 -8 -8 -8 -8 -8 -8 -7 -7 -7 -6 -7 -6 -6 -5 -5 -5 -5 -5 -5 -5 -5 -4 -4 -4 -4 -4 -4 -4
-9 -9 -9 -10 -10 -10 -10 -9 -9 -10 -10 -10 -9 -8 -8 -8 -8 -8 -8 -8 -7 -7 -7 -6 -6 -7 -6 -6 -6 -6 -5 -6 -5 -5 -5 -5 -5 -5 -5 -5 -5 -5 -4 -4
-9 -10 -10 -10 -9 -9 -10 -10 -10 -10 -9 -9 -9 -8 -8 -8 -8 -8 -8 -8 -7 -7 -7 -7 -7 -7 -6 -6 -6 -5 -5 -5 -5 -6 -6 -5 -5 -6 -5 -5 -5 -5 -5 -5
-10 -10 -10 -10 -10 -9 -9 -9 -9 -9 -9 -9 -9 -8 -8 -8 -8 -8 -8 -8 -8 -8 -7 -7 -7 -7 -7 -7 -6 -6 -6 -6 -6 -6 -6 -6 -6 -6 -6 -6 -6 -6 -6 -6
-10 -9 -9 -10 -9 -9 -9 -9 -9 -9 -9 -9 -8 -8 -8 -8 -8 -8 -8 -8 -8 -7 -7 -7 -7 -8 -7 -7 -7 -6 -7 -6 -6 -6 -6 -6 -6 -6 -6 -6 -7 -7 -7 -6
-9 -9 -9 -10 -9 -9 -9 -9 -9 -9 -9 -8 -8 -8 -8 -8 -8 -8 -8 -8 -7 -7 -8 -7 -9 -10 -9 -8 -7 -7 -7 -7 -7 -6 -7 -7 -7 -7 -8 -8 -8 -8 -8 -8
-9 -9 -9 -9 -9 -9 -9 -10 -9 -9 -9 -9 -8 -8 -9 -8 -8 -8 -8 -8 -8 -8 -8 -8 -10 -8 -7 -8 -7 -7 -7 -7 -8 -8 -8 -8 -8 -8 -9 -9 -10 -10 -9 -9
-9 -9 -8 -8 -8 -8 -8 -8 -7 -8 -8 -8 -8 -9 -8 -8 -8 -8 -7 -8 -8 -8 -9 -12 -10 -9 -8 -8 -9 -9 -9 -9 -9 -9 -9 -10 -10 -10 -10 -10 -11 -11 -11 -11
-8 -8 -7 -8 -8 -8 -8 -8 -9 -9 -8 -8 -8 -8 -8 -8 -7 -7 -8 -8 -10 -11 -12 -12 -11 -11 -11 -12 -12 -11 -11 -11 -11 -11 -12 -12 -12 -12 -12 -12 -13 -13 -13 -14
-7 -7 -9 -9 -9 -8 -8 -8 -9 -9 -9 -8 -8 -8 -8 -8 -7 -8 -9 -11 -12 -13 -11 -11 -11 -12 -12 -12 -13 -13 -13 -13 -14 -14 -14 -14 -14 -14 -14 -14 -15 -15 -15 -15
-7 -9 -9 -9 -8 -8 -9 -9 -9 -9 -9 -8 -8 -8 -7 -8 -9 -9 -10 -13 -11 -11 -12 -13 -13 -13 -14 -14 -14 -14 -14 -15 -15 -15 -15 -15 -15 -15 -15 -16 -16 -16 -16 -16

GFSNW_700_temp_087.txt.gz
Temp
-12 -12 -12 -12 -12 -12 -11 -11 -11 -10 -8 -9 -9 -8 -8 -6 -5 -4 -4 -4 -3 -3 -2 -2 -1 -2 -2 -1 -2 -1 -1 -1 -1 -1 -1 -1 -2 -2 -2 -1 0 1 0 1
-12 -12 -12 -12 -12 -12 -12 -12 -10 -10 -9 -9 -9 -8 -7 -7 -6 -5 -4 -4 -4 -3 -3 -3 -2 -2 -4 -3 -2 -2 -2 -2 -2 -0 -0 -1 -2 -2 -2 -1 -1 -0 0 1
-12 -12 -12 -12 -12 -12 -12 -12 -10 -10 -10 -9 -9 -8 -8 -7 -6 -5 -5 -5 -4 -4 -3 -3 -3 -2 -4 -3 -3 -2 -3 -3 -2 -2 -2 -2 -2 -2 -2 -1 -1 -0 -0 1
-11 -12 -12 -12 -12 -12 -12 -12 -11 -10 -10 -10 -8 -8 -7 -7 -7 -6 -5 -5 -5 -4 -4 -3 -3 -3 -3 -2 -3 -3 -3 -3 -3 -2 -1 -2 -2 -1 -2 -1 -1 -1 1 -0
-11 -11 -12 -12 -12 -12 -12 -12 -12 -11 -10 -9 -9 -8 -7 -7 -7 -7 -6 -6 -5 -5 -4 -4 -4 -4 -3 -4 -3 -4 -4 -3 -4 -2 -0 -0 -2 -1 -2 -1 -1 -1 -1 -0
-11 -11 -11 -11 -12 -12 -12 -11 -12 -11 -9 -9 -10 -9 -8 -7 -7 -6 -7 -7 -6 -5 -5 -4 -4 -4 -4 -4 -4 -4 -4 -4 -3 -2 -1 -1 0 1 1 0 0 1 2 2
-10 -10 -11 -10 -11 -11 -11 -10 -11 -11 -10 -10 -9 -9 -9 -8 -7 -7 -7 -7 -7 -6 -6 -6 -4 -4 -5 -5 -4 -4 -4 -4 -4 -3 -2 -2 1 1 2 2 1 2 2 2
-10 -10 -10 -10 -11 -10 -10 -11 -11 -11 -10 -10 -9 -9 -9 -8 -8 -8 -7 -7 -7 -6 -7 -6 -6 -5 -5 -4 -4 -4 -3 -4 -4 -3 -2 -1 1 1 1 1 0 0 2 1
-10 -10 -10 -10 -10 -11 -10 -10 -11 -11 -11 -10 -10 -10 -9 -9 -9 -8 -7 -7 -7 -7 -7 -7 -6 -5 -5 -4 -4 -3 -4 -5 -5 -4 -3 -3 0 1 1 1 -0 -1 0 0
-9 -10 -10 -10 -10 -10 -10 -10 -11 -11 -11 -10 -10 -10 -10 -9 -9 -8 -8 -8 -7 -7 -7 -6 -6 -6 -5 -4 -4 -3 -5 -5 -5 -4 -5 -2 -1 -0 0 1 -2 -2 -1 -0
-9 -9 -9 -9 -10 -10 -10 -10 -10 -11 -10 -9 -10 -10 -10 -9 -9 -9 -8 -8 -7 -7 -7 -6 -6 -6 -5 -4 -4 -4 -5 -5 -5 -5 -4 -4 -1 -1 -0 -2 -2 -2 -2 -1
-9 -9 -10 -9 -9 -9 -10 -10 -10 -10 -10 -9 -10 -10 -10 -10 -9 -9 -8 -8 -7 -8 -7 -6 -7 -5 -5 -5 -4 -4 -5 -4 -4 -4 -3 -3 -3 -2 -3 -3 -3 -3 -2 -2
-9 -9 -10 -10 -10 -9 -9 -9 -9 -10 -10 -10 -10 -8 -9 -9 -9 -9 -9 -8 -8 -8 -7 -7 -7 -6 -6 -5 -5 -5 -4 -4 -4 -3 -4 -3 -4 -3 -3 -3 -3 -3 -3 -3
-9 -8 -9 -10 -10 -9 -9 -9 -9 -10 -10 -10 -8 -9 -9 -9 -9 -9 -8 -9 -8 -8 -8 -7 -7 -7 -6 -6 -5 -5 -5 -5 -4 -4 -4 -4 -4 -5 -4 -4 -4 -5 -4 -3
-9 -9 -9 -10 -10 -10 -10 -9 -9 -9 -10 -10 -9 -9 -9 -9 -9 -9 -9 -8 -8 -8 -8 -8 -7 -6 -6 -6 -6 -6 -6 -5 -4 -5 -5 -5 -5 -5 -5 -5 -5 -4 -4 -3
-10 -9 -9 -10 -10 -10 -10 -9 -9 -9 -10 -10 -9 -9 -9 -8 -8 -8 -8 -8 -8 -8 -8 -7 -7 -7 -6 -6 -6 -7 -7 -6 -5 -6 -6 -6 -6 -7 -6 -4 -4 -4 -4 -4
-10 -10 -10 -10 -10 -10 -10 -9 -8 -9 -9 -10 -10 -9 -9 -9 -8 -8 -8 -9 -8 -8 -8 -7 -7 -7 -7 -6 -6 -7 -7 -6 -6 -6 -6 -7 -6 -5 -5 -5 -5 -5 -5 -5
-10 -10 -10 -10 -10 -10 -10 -9 -9 -9 -10 -10 -10 -10 -9 -9 -9 -8 -8 -8 -8 -8 -8 -7 -7 -7 -7 -7 -6 -6 -7 -6 -6 -6 -6 -6 -5 -5 -5 -5 -5 -5 -5 -5
-10 -10 -10 -10 -10 -10 -9 -9 -9 -9 -10 -10 -10 -9 -9 -9 -8 -8 -8 -8 -8 -8 -8 -7 -7 -7 -6 -7 -7 -7 -7 -6 -6 -6 -6 -6 -5 -5 -5 -5 -5 -5 -5 -5
-10 -10 -10 -10 -9 -10 -10 -10 -10 -10 -10 -9 -9 -9 -9 -8 -8 -8 -8 -8 -8 -8 -7 -7 -7 -7 -7 -7 -7 -6 -6 -6 -6 -6 -6 -6 -6 -6 -5 -5 -5 -5 -5 -5
-10 -9 -10 -9 -10 -9 -10 -10 -10 -10 -10 -9 -9 -9 -8 -8 -8 -8 -8 -8 -8 -8 -7 -7 -8 -8 -7 -7 -6 -6 -7 -7 -6 -7 -7 -6 -6 -6 -6 -6 -6 -6 -6 -6
-9 -8 -10 -10 -10 -9 -9 -9 -9 -9 -9 -9 -9 -9 -8 -8 -8 -8 -8 -8 -8 -8 -7 -7 -8 -8 -7 -7 -7 -8 -8 -7 -7 -8 -8 -7 -7 -7 -7 -7 -7 -7 -7 -7
-10 -10 -10 -9 -9 -9 -9 -9 -9 -9 -8 -8 -8 -8 -8 -8 -8 -8 -8 -8 -8 -8 -8 -8 -9 -8 -9 -9 -9 -9 -9 -8 -8 -8 -8 -8 -8 -8 -9 -9 -9 -9 -9 -9
-9 -9 -9 -9 -9 -8 -8 -8 -7 -7 -7 -7 -7 -8 -9 -8 -8 -8 -8 -8 -8 -8 -9 -9 -9 -10 -10 -10 -10 -10 -9 -9 -9 -9 -10 -10 -10 -11 -11 -11 -11 -12 -12 -12
-9 -8 -8 -9 -9 -8 -8 -8 -8 -8 -8 -9 -9 -9 -8 -8 -8 -8 -8 -9 -10 -10 -10 -10 -10 -11 -10 -11 -11 -11 -11 -11 -11 -11 -12 -12 -12 -13 -13 -13 -13 -14 -14 -15
-8 -8 -9 -11 -10 -9 -8 -8 -8 -9 -10 -10 -9 -8 -8 -8 -9 -9 -10 -9 -9 -10 -10 -11 -11 -11 -11 -11 -11 -12 -12 -12 -13 -13 -13 -13 -14 -14 -14 -15 -15 -15 -16 -16
-10 -11 -10 -10 -10 -10 -10 -9 -9 -9 -9 -9 -8 -8 -9 -10 -9 -9 -9 -10 -10 -11 -11 -11 -12 -12 -12 -12 -13 -13 -14 -14 -14 -15 -15 -15 -15 -16 -16 -16 -16 -16 -16 -16

GFSNW_700_temp_090.txt.gz
Temp
-11 -12 -12 -12 -12 -12 -12 -12 -11 -11 -10 -10 -10 -9 -8 -7 -7 -6 -5 -4 -4 -3 -3 -3 -2 -2 -2 -3 -3 -2 -2 -2 -2 -1 -0 -1 -2 -2 -2 -1 -0 0 -0 1
-11 -11 -12 -12 -12 -12 -12 -12 -11 -11 -10 -11 -10 -9 -8 -8 -7 -6 -5 -5 -4 -4 -4 -3 -3 -3 -3 -3 -3 -3 -2 -3 -3 -1 -0 -2 -3 -3 -2 -2 -2 -1 -0 1
-11 -11 -12 -12 -12 -12 -12 -12 -11 -10 -11 -10 -10 -9 -8 -8 -7 -6 -6 -5 -5 -4 -4 -3 -3 -4 -3 -3 -3 -3 -3 -3 -3 -3 -3 -3 -3 -2 -2 -2 -2 -1 -1 1
-11 -11 -11 -11 -12 -12 -12 -12 -11 -11 -10 -10 -10 -9 -8 -8 -8 -7 -6 -6 -5 -5 -5 -4 -4 -4 -3 -3 -3 -4 -4 -3 -3 -3 -3 -2 -2 -2 -2 -2 -2 -1 -1 -1
-11 -11 -11 -11 -12 -12 -12 -12 -11 -12 -10 -10 -10 -9 -9 -8 -8 -8 -6 -6 -6 -6 -6 -5 -5 -4 -4 -4 -4 -4 -4 -4 -3 -3 -3 -4 -2 -2 -2 -1 -2 -2 -2 -1
-11 -11 -11 -11 -11 -11 -11 -11 -11 -11 -11 -10 -10 -9 -9 -9 -8 -8 -7 -7 -7 -6 -6 -6 -5 -5 -5 -4 -4 -4 -4 -4 -4 -3 -2 -4 -1 0 0 -0 -2 -0 -2 -1
-11 -11 -11 -11 -11 -10 -11 -11 -11 -12 -10 -11 -10 -10 -10 -9 -9 -8 -8 -8 -7 -7 -7 -6 -6 -5 -5 -5 -4 -4 -5 -4 -4 -4 -4 -3 -1 0 0 -2 -1 -1 -1 -1
-11 -11 -11 -11 -11 -11 -11 -11 -11 -11 -10 -10 -10 -10 -10 -9 -8 -8 -8 -8 -7 -7 -7 -6 -6 -5 -5 -4 -4 -4 -4 -4 -5 -4 -4 -3 -1 -1 -2 -1 -2 -1 -1 -1
-10 -11 -10 -10 -10 -11 -10 -11 -11 -11 -11 -9 -10 -10 -10 -9 -9 -8 -8 -8 -7 -7 -7 -6 -7 -6 -5 -5 -4 -4 -4 -5 -5 -5 -4 -5 -1 -1 -0 -1 -1 -1 -2 -2
-10 -10 -10 -10 -10 -10 -11 -10 -11 -11 -11 -10 -10 -10 -10 -10 -10 -9 -8 -8 -8 -7 -8 -7 -6 -6 -6 -5 -5 -4 -4 -6 -6 -6 -5 -4 -2 -2 -1 -2 -2 -2 -2 -1
-10 -10 -10 -10 -10 -10 -10 -10 -10 -11 -10 -9 -10 -11 -10 -10 -10 -9 -8 -8 -7 -7 -7 -7 -6 -6 -6 -5 -5 -5 -4 -5 -6 -6 -5 -5 -2 -2 -2 -3 -3 -2 -2 -1
-10 -10 -10 -10 -10 -10 -10 -10 -10 -10 -10 -9 -10 -10 -10 -10 -10 -9 -9 -8 -8 -8 -8 -8 -7 -6 -6 -6 -5 -5 -5 -5 -5 -5 -5 -5 -4 -3 -3 -4 -3 -3 -3 -2
-10 -10 -10 -10 -10 -10 -10 -10 -10 -10 -10 -10 -9 -9 -10 -10 -10 -10 -9 -8 -8 -8 -7 -8 -7 -7 -7 -6 -6 -5 -5 -5 -5 -5 -5 -5 -4 -4 -4 -3 -3 -3 -3 -5
-9 -9 -9 -10 -10 -10 -10 -10 -9 -10 -10 -10 -8 -9 -9 -9 -10 -9 -9 -9 -9 -9 -8 -8 -8 -7 -7 -6 -6 -6 -6 -5 -5 -5 -4 -5 -5 -5 -4 -4 -4 -5 -5 -6
-9 -9 -9 -10 -10 -10 -10 -10 -9 -9 -10 -10 -9 -10 -9 -9 -9 -9 -9 -9 -9 -9 -8 -8 -7 -7 -7 -6 -6 -7 -7 -5 -6 -6 -5 -5 -5 -5 -5 -5 -6 -6 -4 -4
-10 -10 -10 -10 -10 -10 -10 -10 -10 -9 -9 -10 -10 -9 -9 -9 -9 -9 -9 -9 -9 -9 -8 -8 -7 -7 -8 -6 -7 -9 -8 -7 -6 -6 -6 -6 -6 -7 -7 -7 -6 -5 -4 -3
-10 -10 -10 -10 -10 -10 -9 -10 -9 -9 -10 -10 -10 -9 -9 -8 -9 -9 -9 -9 -9 -8 -8 -8 -7 -7 -7 -7 -7 -8 -7 -7 -7 -6 -6 -7 -7 -7 -7 -6 -5 -5 -5 -4
-10 -10 -11 -10 -10 -10 -9 -9 -9 -9 -10 -10 -10 -10 -9 -9 -10 -10 -9 -9 -9 -9 -9 -8 -8 -8 -8 -7 -6 -7 -7 -7 -7 -7 -7 -7 -7 -6 -6 -6 -6 -5 -5 -5
-10 -10 -10 -10 -10 -10 -9 -10 -9 -9 -9 -10 -10 -10 -9 -9 -9 -9 -9 -9 -9 -9 -8 -8 -8 -8 -7 -7 -7 -7 -7 -7 -7 -7 -7 -7 -7 -7 -7 -7 -6 -6 -5 -5
-10 -10 -10 -10 -10 -10 -10 -10 -10 -10 -10 -10 -9 -9 -9 -10 -9 -9 -10 -9 -9 -8 -8 -8 -8 -7 -7 -7 -7 -6 -7 -7 -8 -8 -8 -8 -8 -7 -7 -7 -6 -7 -6 -6
-10 -10 -9 -9 -9 -10 -10 -10 -10 -10 -10 -9 -9 -9 -9 -8 -8 -9 -9 -8 -8 -8 -7 -8 -8 -8 -7 -7 -7 -7 -8 -7 -7 -7 -7 -7 -8 -8 -7 -7 -7 -7 -7 -7
-9 -9 -9 -10 -10 -10 -10 -10 -10 -10 -9 -8 -8 -8 -9 -8 -8 -8 -9 -8 -8 -8 -8 -8 -7 -7 -7 -8 -9 -8 -8 -8 -8 -8 -8 -8 -8 -8 -8 -8 -8 -8 -8 -9
-10 -9 -9 -10 -9 -9 -9 -9 -9 -9 -8 -8 -7 -8 -8 -8 -8 -8 -8 -8 -8 -8 -8 -8 -8 -8 -9 -9 -9 -9 -9 -9 -9 -9 -9 -9 -9 -9 -10 -10 -10 -10 -10 -11
-10 -9 -9 -9 -9 -9 -9 -8 -8 -7 -7 -7 -8 -8 -8 -8 -8 -8 -8 -8 -8 -8 -8 -8 -8 -9 -9 -9 -9 -10 -10 -10 -10 -10 -11 -11 -11 -11 -12 -12 -12 -12 -13 -13
-9 -8 -8 -8 -8 -8 -8 -8 -7 -7 -7 -8 -7 -8 -8 -8 -8 -8 -8 -8 -9 -9 -8 -8 -9 -9 -10 -10 -10 -10 -11 -11 -11 -12 -12 -12 -13 -13 -13 -13 -14 -14 -15 -15
-8 -8 -7 -8 -8 -8 -8 -8 -7 -7 -8 -9 -9 -9 -8 -8 -8 -9 -9 -9 -8 -9 -9 -9 -10 -10 -11 -11 -12 -12 -12 -13 -13 -13 -14 -14 -14 -14 -15 -15 -15 -16 -16 -16
-8 -9 -9 -9 -10 -9 -8 -8 -8 -8 -10 -9 -8 -8 -8 -8 -8 -8 -8 -9 -9 -9 -10 -11 -11 -12 -12 -12 -12 -13 -13 -13 -14 -14 -15 -15 -15 -16 -16 -16 -16 -17 -17 -17

GFSNW_700_temp_096.txt.gz
Temp
-7 -8 -9 -10 -11 -10 -11 -11 -11 -12 -12 -11 -11 -10 -10 -10 -9 -8 -8 -8 -7 -7 -6 -3 -2 -3 -4 -3 -2 -2 -2 -2 -2 -2 -2 -2 -2 -3 -3 -3 -2 -2 -2 -0
-8 -8 -10 -10 -11 -11 -11 -11 -11 -12 -11 -11 -11 -11 -11 -10 -9 -9 -9 -8 -7 -7 -6 -4 -4 -4 -4 -4 -3 -3 -3 -3 -3 -3 -3 -3 -3 -3 -3 -3 -3 -3 -3 -0
-8 -9 -10 -10 -11 -11 -11 -11 -12 -11 -11 -11 -11 -11 -10 -9 -9 -8 -8 -8 -7 -7 -6 -6 -5 -5 -5 -5 -4 -3 -3 -3 -3 -4 -3 -4 -3 -3 -3 -3 -3 -3 -2 -1
-8 -9 -10 -10 -10 -11 -11 -12 -12 -11 -11 -11 -11 -10 -10 -10 -10 -9 -8 -7 -7 -7 -7 -7 -6 -5 -4 -4 -4 -4 -3 -4 -3 -3 -3 -3 -3 -2 -3 -3 -3 -3 -2 -2
-9 -9 -10 -10 -10 -10 -11 -12 -12 -11 -11 -11 -11 -10 -10 -10 -9 -8 -8 -7 -7 -7 -6 -6 -5 -5 -4 -4 -4 -4 -4 -4 -4 -4 -4 -4 -4 -3 -3 -2 -2 -2 -3 -2
-9 -9 -10 -11 -10 -10 -11 -12 -12 -11 -11 -11 -11 -11 -10 -9 -9 -9 -8 -8 -8 -7 -7 -6 -6 -5 -5 -5 -5 -4 -4 -4 -4 -4 -4 -4 -3 -3 -3 -2 -1 -2 -3 -1
-9 -9 -10 -10 -11 -11 -11 -11 -11 -11 -10 -10 -10 -11 -11 -10 -9 -9 -8 -8 -8 -7 -7 -6 -6 -5 -5 -5 -4 -5 -5 -5 -5 -5 -5 -6 -3 -3 -3 -3 -2 -2 -2 -1
-9 -9 -10 -10 -11 -11 -11 -11 -11 -12 -11 -10 -10 -10 -10 -10 -10 -9 -9 -8 -8 -7 -6 -5 -5 -5 -4 -5 -5 -5 -5 -5 -5 -5 -5 -5 -3 -4 -3 -4 -1 -1 -2 -2
-9 -9 -10 -10 -10 -11 -11 -11 -11 -11 -11 -10 -10 -10 -10 -10 -9 -9 -9 -8 -7 -7 -7 -6 -6 -5 -5 -5 -5 -5 -4 -5 -6 -6 -6 -7 -3 -3 -3 -3 -3 -2 -2 -2
-9 -9 -9 -10 -11 -11 -11 -11 -11 -11 -11 -11 -10 -10 -10 -10 -10 -9 -9 -8 -7 -7 -7 -7 -7 -6 -6 -6 -5 -5 -5 -5 -6 -6 -6 -6 -4 -4 -3 -4 -3 -3 -3 -2
-9 -9 -9 -9 -10 -11 -11 -10 -11 -11 -10 -10 -10 -11 -11 -10 -10 -10 -9 -8 -8 -7 -7 -8 -8 -7 -7 -6 -6 -6 -6 -6 -6 -7 -7 -7 -5 -5 -4 -4 -3 -3 -3 -3
-9 -9 -9 -9 -10 -10 -10 -10 -11 -11 -11 -10 -10 -10 -11 -10 -10 -10 -10 -9 -9 -9 -8 -8 -8 -7 -7 -7 -6 -6 -6 -6 -6 -6 -6 -6 -5 -5 -6 -5 -5 -4 -4 -3
-9 -9 -10 -10 -10 -10 -10 -10 -10 -10 -10 -10 -10 -10 -10 -10 -10 -10 -10 -10 -9 -9 -9 -9 -8 -8 -8 -7 -7 -7 -7 -6 -7 -7 -6 -6 -6 -6 -6 -5 -5 -5 -4 -4
-10 -10 -10 -11 -10 -10 -10 -9 -9 -10 -10 -10 -9 -10 -10 -9 -10 -9 -10 -10 -10 -10 -9 -9 -9 -8 -8 -8 -8 -8 -7 -7 -6 -7 -7 -7 -6 -6 -5 -6 -5 -5 -5 -5
-10 -10 -11 -11 -10 -10 -10 -10 -10 -10 -10 -10 -9 -9 -9 -10 -10 -10 -10 -10 -10 -10 -10 -9 -9 -8 -8 -8 -8 -8 -7 -7 -7 -7 -7 -7 -7 -6 -6 -6 -6 -6 -6 -6
-10 -11 -11 -11 -11 -10 -10 -10 -10 -10 -10 -10 -10 -9 -9 -9 -9 -10 -10 -10 -10 -9 -10 -9 -8 -8 -9 -8 -8 -7 -8 -8 -7 -8 -8 -7 -7 -7 -7 -7 -6 -6 -7 -7
-10 -11 -11 -11 -10 -10 -10 -10 -10 -9 -10 -10 -10 -10 -9 -9 -9 -9 -10 -10 -10 -10 -10 -9 -9 -8 -9 -8 -8 -7 -7 -8 -8 -8 -8 -8 -7 -7 -7 -7 -7 -7 -6 -7
-10 -10 -10 -10 -10 -10 -10 -10 -10 -10 -10 -10 -11 -10 -9 -9 -9 -9 -10 -10 -10 -10 -10 -9 -9 -9 -9 -8 -7 -7 -7 -8 -8 -8 -8 -7 -7 -7 -7 -7 -7 -6 -6 -6
-10 -10 -10 -10 -11 -10 -10 -10 -10 -10 -10 -11 -10 -9 -9 -9 -9 -10 -10 -10 -10 -10 -10 -9 -10 -9 -9 -7 -7 -7 -7 -8 -8 -8 -7 -7 -7 -7 -7 -7 -7 -7 -7 -6
-10 -11 -11 -11 -10 -10 -10 -10 -11 -10 -10 -10 -10 -10 -9 -9 -9 -10 -11 -10 -10 -10 -9 -9 -10 -9 -8 -8 -8 -7 -7 -7 -7 -7 -8 -8 -7 -7 -7 -7 -7 -7 -7 -7
-11 -10 -10 -10 -10 -10 -10 -10 -10 -11 -10 -10 -9 -10 -9 -9 -9 -10 -10 -10 -9 -10 -9 -9 -9 -8 -7 -7 -8 -8 -8 -8 -8 -8 -8 -8 -7 -8 -8 -8 -8 -8 -8 -8
-10 -10 -10 -10 -10 -10 -10 -10 -10 -9 -9 -9 -9 -9 -9 -10 -9 -10 -10 -9 -9 -9 -9 -9 -8 -7 -7 -7 -7 -8 -9 -9 -9 -8 -8 -8 -8 -9 -9 -9 -9 -9 -9 -9
-10 -10 -10 -10 -10 -10 -10 -10 -9 -9 -9 -8 -8 -9 -9 -9 -9 -9 -9 -9 -8 -8 -8 -8 -7 -7 -7 -8 -8 -9 -9 -9 -9 -9 -10 -10 -10 -11 -11 -11 -11 -11 -11 -11
-10 -10 -10 -9 -9 -9 -9 -7 -7 -8 -7 -7 -8 -9 -9 -9 -9 -9 -8 -8 -9 -8 -9 -7 -7 -7 -8 -9 -9 -9 -9 -10 -10 -10 -11 -11 -12 -12 -12 -13 -13 -13 -14 -14
-9 -9 -8 -8 -8 -8 -8 -8 -8 -7 -7 -8 -9 -9 -9 -9 -8 -8 -8 -9 -8 -8 -8 -8 -8 -8 -9 -10 -10 -10 -11 -11 -11 -12 -12 -12 -12 -13 -13 -14 -14 -15 -15 -16
-8 -8 -7 -7 -7 -8 -7 -7 -8 -7 -8 -9 -9 -9 -9 -8 -8 -8 -8 -8 -7 -7 -8 -8 -9 -9 -10 -10 -11 -11 -11 -11 -12 -12 -13 -13 -14 -14 -15 -16 -16 -16 -17 -17
-8 -8 -8 -9 -9 -8 -8 -8 -8 -8 -9 -9 -9 -8 -8 -8 -7 -8 -7 -7 -7 -8 -8 -9 -9 -10 -10 -10 -11 -11 -11 -11 -12 -13 -13 -14 -15 -15 -16 -17 -17 -18 -18 -18